Flag for Peru Weather past 2 weeks in Arequipa, Arequipa, Peru

Now
73 °F

Passing clouds.


Feels Like: 74 °F
Forecast: 51 / 79 °F
Wind: 10 mph from West

Location: Arequipa Airport

Current Time: Aug 28, 2015 at 3:08:03 PM

Latest Report: Aug 28, 2015 at 2:00 PM


Visibility: N/A

Pressure: 30.24 "Hg (23.07 "Hg at 2345m altitude)

Humidity: 11%

Dew point: 16 °F

Location of ArequipaLocation

Historic Weather in Arequipa — Graph

°F

Arequipa temperature yesterday

Maximum temperature yesterday: 73 °F (at 10:00 AM)
Minimum temperature yesterday: 50 °F (at 2:00 AM)
Average temperature yesterday: 61 °F

Past Weeks' High & Low Weather Summary

 TemperatureHumidityPressure
High77 °F (Aug 16, 1:00 PM)40% (Aug 14, 12:00 AM)30.39 "Hg (Aug 14, 12:00 AM)
Low46 °F (Aug 17, 4:00 AM)6% (Aug 27, 10:00 AM)30.24 "Hg (Aug 15, 3:00 PM)
Average60 °F22%30.31 "Hg
* Reported Aug 13 2:00 PM — Aug 28 2:00 PM, Arequipa, Weather by CustomWeather, © 2015

Note: Actual official high and low records may vary slightly from our data, if they occured in-between our weather recording intervals... More about our weather records

Advertising

Arequipa weather history for previous 24 hours

 ConditionsComfort  
Time TempWeatherWind HumidityBarometerVisibility
2:00 PM
Fri, Aug 28
73 °FPassing clouds.10 mph11%30.24 "HgN/A
1:00 PM72 °FSunny.10 mph9%30.27 "Hg10 mi
12:00 PM72 °FPassing clouds.10 mph10%30.30 "HgN/A
11:00 AM72 °FPassing clouds.12 mph8%30.30 "HgN/A
10:00 AM72 °FSunny.10 mph7%30.33 "Hg10 mi
9:00 AM68 °FPassing clouds.6 mph7%30.33 "HgN/A
8:00 AM64 °FSunny.3 mph8%30.33 "Hg10 mi
7:00 AM54 °FCool.8 mph12%30.30 "HgN/A
6:00 AM50 °FSunny.6 mph13%30.30 "Hg10 mi
5:00 AM50 °FClear.7 mph13%30.27 "Hg10 mi
4:00 AM52 °FClear.9 mph16%30.27 "Hg10 mi
3:00 AM54 °FClear.7 mph14%30.30 "Hg10 mi
2:00 AM52 °FClear.8 mph13%30.30 "Hg10 mi
11:00 PM
Thu, Aug 27
54 °FClear.6 mph22%30.36 "Hg10 mi
10:00 PM55 °FClear.No wind23%30.36 "Hg10 mi
9:00 PM55 °FClear.7 mph24%30.39 "Hg10 mi
8:00 PM57 °FClear.3 mph20%30.36 "Hg10 mi
7:00 PM57 °FClear.No wind25%30.33 "Hg10 mi
6:00 PM63 °FClear.8 mph20%30.33 "Hg10 mi
5:00 PM66 °FSunny.10 mph18%30.30 "Hg10 mi
4:00 PM70 °FPassing clouds.12 mph16%30.30 "HgN/A
3:00 PM72 °FSunny.12 mph13%30.30 "Hg10 mi
Weather by CustomWeather, © 2015

See weather overviewHow to use our weather pages